Weather Roundup
Issued by NWS

Home | Current Version | Previous Version | Text Only | Print | Product List | Glossary On
Versions: 1 2 3 4 5 6 7 8 9 10 11 12 13 14 15 16 17 18 19 20 21 22 23 24 25 26 27 28 29 30 31 32 33 34 35 36 37 38 39 40 41 42 43 44 45 46 47 48 49 50
567
NZUS93 KARX 061959
HRRWXR

CURRENT HOURLY OBSERVATIONS ACROSS
MUCH OF THE UPPER MISSISSIPPI VALLEY
NATIONAL WEATHER SERVICE LA CROSSE WI
200 PM CST TUE DEC 06 2016


...SOUTHEAST MINNESOTA...


CITY           SKY/WX    TMP DP  RH WIND       PRES   REMARKS
ROCHESTER      CLOUDY    22  16  78 W24       29.75R WCI   5
ROCHESTER/MAYO CLOUDY    23  16  74 W24G33    29.74F WCI   7
WINONA         FLURRIES  28  19  69 W12G20    29.78  WCI  18
AUSTIN         CLOUDY    23  16  74 W18G30    29.77S WCI   9
ALBERT LEA     CLOUDY    27  18  69 W16G28    29.77S WCI  14
DODGE CENTER   FLURRIES  21  16  79 W24G35    29.74R WCI   4
PRESTON        CLOUDY    22  15  74 W17G28    29.77S WCI   8
OWATONNA       FLURRIES  23  14  68 SW21G29   29.75S WCI   8
FARIBAULT      FLURRIES  23  16  74 SW15G23   29.75R WCI  10
$$

...ELSEWHERE IN MINNESOTA...


CITY           SKY/WX    TMP DP  RH WIND       PRES   REMARKS
MINNEAPOLIS    FLURRIES  23  12  62 SW17G26   29.70S WCI   9
INTNL FALLS    LGT SNOW  22  15  75 S6        29.39S WCI  14
DULUTH         LGT SNOW  20  15  81 SW20G28   29.49F BLWGSNOWWCI   4
RED WING       CLOUDY    25  12  58 W14G25    29.72F WCI  13
REDWOOD FALLS  CLOUDY    22  10  60 W25G39    29.74S WCI   5
MANKATO        FLURRIES  22  13  68 W29G35    29.75R WCI   4
WORTHINGTON    FLURRIES  21  12  68 W30G40    29.79S WCI   3
FAIRMONT       CLOUDY    23  13  65 W30G41    29.80S WCI   5
$$

...SOUTHWEST WISCONSIN...


CITY           SKY/WX    TMP DP  RH WIND       PRES   REMARKS
LA CROSSE      CLOUDY    26  17  68 SW13      29.80R WCI  15
PRAIRIE DU CHI PTSUNNY   28  18  66 W17G24    29.83R WCI  15
BOSCOBEL       SUNNY     30  18  60 W15G24    29.81R WCI  19
LONE ROCK      NOT AVBL
PLATTEVILLE    SUNNY     31  20  63 W15       29.80R WCI  21
FORT MC COY    MOSUNNY   28  20  72 W17       29.75R WCI  15
MAUSTON-NEW LI CLEAR     31  19  61 W16G22    29.71S WCI  20
VIROQUA        CLOUDY    24  17  74 W18G26    29.76R WCI  10
WIS DELLS      CLOUDY    33  24  68 W12G18    29.72S WCI  25
$$

...ELSEWHERE IN WISCONSIN...


CITY           SKY/WX    TMP DP  RH WIND       PRES   REMARKS
MILWAUKEE      CLOUDY    37  31  78 W13G23    29.74R WCI  29
MADISON        PTSUNNY   34  24  67 W9G18     29.73S WCI  27
GREEN BAY      CLOUDY    37  33  85 SW8       29.68F WCI  31
EAU CLAIRE     NOT AVBL
BLACK RVR FLS  CLOUDY    25  16  68 W13G26    29.75R WCI  14
MEDFORD        CLOUDY    24  19  81 W9G16     29.63S WCI  15
WAUSAU         CLOUDY    29  21  72 SW9       29.63S WCI  20
WIS RAPIDS     CLOUDY    30  23  75 W12G17    29.69S WCI  20
MARSHFIELD     PTSUNNY   26  18  71 W21G29    29.66R WCI  12
RICE LAKE      FLURRIES  22  15  75 SW14      29.66F WCI   9
$$

...NORTHEAST IOWA...


CITY           SKY/WX    TMP DP  RH WIND       PRES   REMARKS
WATERLOO       PTSUNNY   28  18  66 W22G30    29.86S WCI  14
DUBUQUE        SUNNY     28  20  71 W16       29.82R WCI  16
DECORAH        NOT AVBL
MASON CITY     PTSUNNY   25  14  63 W26G39    29.83S WCI   9
CHARLES CITY   CLOUDY    25  18  74 W21G32    29.83S WCI  10
OELWEIN        PTSUNNY   25  19  80 W21G29    29.84R WCI  10
$$

...ELSEWHERE IN IOWA...


CITY           SKY/WX    TMP DP  RH WIND       PRES   REMARKS
DES MOINES     MOSUNNY   34  14  43 W20G26    29.93S WCI  23
IOWA CITY      SUNNY     34  22  61 W18G26    29.91R WCI  23
FORT DODGE     SUNNY     28  14  54 W17G30    29.89S WCI  16
MARSHALLTOWN   MOSUNNY   30  20  66 W24G30    29.88S WCI  16
CEDAR RAPIDS   SUNNY     30  22  72 NW20G29   29.87R WCI  17
$$

...NORTHERN ILLINOIS...


CITY           SKY/WX    TMP DP  RH WIND       PRES   REMARKS
CHICAGO-OHARE  CLOUDY    35  31  85 W12       29.77R FOG     WCI  27
CHICAGO-MIDWAY CLOUDY    36  30  79 W10G22    29.78R FOG     WCI  28
MOLINE         SUNNY     36  24  62 W13       29.87R WCI  27
ROCKFORD       CLOUDY    35  31  85 W15G24    29.80S WCI  25
PEORIA         PTSUNNY   38  29  70 W15       29.88R WCI  29
$$

NOTE: "FAIR" INDICATES FEW OR NO CLOUDS BELOW 12,000 FEET WITH NO
SIGNIFICANT WEATHER AND/OR OBSTRUCTIONS TO VISIBILITY. WIND
SPEEDS ARE IN MILES-PER-HOUR.




USA.gov is the U.S. government's official web portal to all federal, state and local government web resources and services.